CW2550 Weather Reports


time (UTC)temp
C
wind
direction
speed
KPH
gust
KPH
rain 1hr
cm
rain 24hr
cm
rain mn
cm
humidity
%
barometer
mb
20260503003042 16 208 8.0 41.8 0.00 0.00 0.00 41 1010.6
20260503001544 16 202 9.7 17.7 0.00 0.00 0.00 38 1010.3
20260503000041 17 209 6.4 14.5 0.00 0.00 0.00 37 1010.4
20260502234603 17 217 9.7 25.7 0.00 0.00 0.00 36 1010.4
20260502233042 17 194 9.7 25.7 0.00 0.00 0.00 36 1010.6
20260502231541 17 192 9.7 20.9 0.00 0.00 0.00 36 1010.8
20260502230042 17 216 9.7 22.5 0.00 0.00 0.00 35 1010.8
20260502224543 17 182 8.0 29.0 0.00 0.00 0.00 35 1011.1
20260502223058 17 198 12.9 29.0 0.00 0.00 0.00 35 1011.1
20260502221544 17 211 8.0 22.5 0.00 0.00 0.00 34 1011.4
20260502220057 17 287 8.0 25.7 0.00 0.00 0.00 33 1011.6
20260502214549 17 244 4.8 25.7 0.00 0.00 0.00 33 1011.8
20260502213051 17 218 9.7 25.7 0.00 0.00 0.00 34 1011.9
20260502211552 17 251 12.9 27.4 0.00 0.00 0.00 34 1012.3
20260502210051 17 258 8.0 19.3 0.00 0.00 0.00 35 1012.6
20260502204544 17 349 9.7 22.5 0.00 0.00 0.00 36 1012.8
20260502203055 16 233 6.4 22.5 0.00 0.00 0.00 35 1013.0
20260502201543 16 210 12.9 27.4 0.00 0.00 0.00 35 1013.3
20260502200051 16 215 11.3 24.1 0.00 0.00 0.00 35 1013.7
20260502194545 15 292 11.3 22.5 0.00 0.00 0.00 36 1013.9
20260502193056 15 230 8.0 24.1 0.00 0.00 0.00 36 1014.2
20260502191542 15 304 4.8 22.5 0.00 0.00 0.00 37 1014.5
20260502190046 15 86 4.8 17.7 0.00 0.00 0.00 35 1014.7
20260502184550 14 197 9.7 19.3 0.00 0.00 0.00 36 1015.0
20260502183037 14 186 12.9 32.2 0.00 0.00 0.00 36 1015.2
20260502181544 13 198 8.0 19.3 0.00 0.00 0.00 37 1015.3
20260502163043 12 211 8.0 20.9 0.00 0.00 0.00 39 1017.0
20260502161540 12 254 3.2 22.5 0.00 0.00 0.00 43 1017.1
20260502151607 11 254 8.0 16.1 0.00 0.00 0.00 44 1017.5
20260502123042 2 231 6.4 12.9 0.00 0.00 0.00 73 1017.8
20260502121542 2 209 4.8 11.3 0.00 0.00 0.00 75 1017.7
20260502114537 1 213 4.8 8.0 0.00 0.00 0.00 77 1017.6
20260502113045 0 208 4.8 8.0 0.00 0.00 0.00 78 1017.4
20260502111541 0 204 3.2 8.0 0.00 0.00 0.00 77 1017.4
20260502110046 0 203 3.2 6.4 0.00 0.00 0.00 77 1017.4
20260502104541 1 198 3.2 6.4 0.00 0.00 0.00 76 1017.5
20260502103042 1 192 3.2 4.8 0.00 0.00 0.00 77 1017.5
20260502101556 1 197 3.2 6.4 0.00 0.00 0.00 76 1017.5
20260502070057 2 198 3.2 6.4 0.00 0.00 0.00 68 1017.7
20260502064537 2 199 3.2 6.4 0.00 0.00 0.00 68 1017.8
20260502063037 2 198 3.2 4.8 0.00 0.00 0.00 67 1017.9
20260502061543 2 200 3.2 6.4 0.00 0.00 0.00 65 1017.9
20260502060045 2 205 3.2 6.4 0.00 0.00 0.00 65 1017.9
20260502054557 2 275 3.2 4.8 0.00 0.00 0.00 64 1018.0
20260502053043 2 279 1.6 4.8 0.00 0.00 0.00 63 1018.0
20260502051537 3 280 1.6 4.8 0.00 0.00 0.00 62 1018.0
20260502050049 3 280 3.2 4.8 0.00 0.00 0.00 61 1017.9
20260502044541 3 281 1.6 4.8 0.00 0.00 0.00 60 1017.7
20260502043051 3 0 0.0 0.0 0.00 0.00 0.00 59 1017.8
20260502041609 3 0 0.0 0.0 0.00 0.00 0.00 58 1017.7
20260502040053 4 0 0.0 0.0 0.00 0.00 0.00 57 1017.8
20260502034547 5 0 0.0 0.0 0.00 0.00 0.00 55 1017.9
20260502033042 5 0 0.0 0.0 0.00 0.00 0.00 53 1017.9
20260502031543 6 0 0.0 0.0 0.00 0.00 0.00 49 1017.9
20260502030108 6 0 0.0 0.0 0.00 0.00 0.00 47 1017.9
20260502024551 6 0 0.0 0.0 0.00 0.00 0.00 46 1017.8
20260502023100 7 0 0.0 0.0 0.00 0.00 0.00 47 1017.8
20260502021538 7 0 0.0 0.0 0.00 0.00 0.00 45 1017.7
20260502020041 8 0 0.0 1.6 0.00 0.00 0.00 44 1017.6
20260502014541 8 0 0.0 1.6 0.00 0.00 0.00 42 1017.3
20260502013044 9 0 0.0 8.0 0.00 0.00 0.00 40 1017.3
20260502011557 9 319 3.2 12.9 0.00 0.00 0.00 38 1017.2
20260502010044 9 325 3.2 8.0 0.00 0.00 0.00 40 1017.2
20260502004542 9 324 0.0 9.7 0.00 0.00 0.00 38 1017.1